contact: severine.martini@mio.osupytheas.fr, dominique.lefevre@mio.osupytheas.fr
Project:EMSO Ligure-ouest http://www.emso-fr.org/EMSO-France
Sensor Microcat Sea-Bird SBE37 SMP,  Serial 57510 
DOI : "https://doi.org/10.17882/97948" 
Title:EMSO Ligure Ouest : Data Bathybot capteur Microcat - deploiement 2023-04-28
Datetime,Profondeur,Latitude,Longitude,Temperature,Conductivite,Pression,Salinite
time,m,degree_north,degree_east,degree_C,S/m,db,PSU 
2023-12-05T00:00:49,2420,42.8014,5.9826,13.2986,4.59914,2453.695,38.4867
2023-12-05T00:03:49,2420,42.8014,5.9826,13.2988,4.59917,2453.695,38.4868
2023-12-05T00:06:49,2420,42.8014,5.9826,13.2992,4.59913,2453.695,38.4860
2023-12-05T00:09:49,2420,42.8014,5.9826,13.2989,4.59912,2453.695,38.4862
2023-12-05T00:12:49,2420,42.8014,5.9826,13.2993,4.59911,2453.695,38.4857
2023-12-05T00:15:49,2420,42.8014,5.9826,13.2990,4.59911,2453.680,38.4861
2023-12-05T00:18:49,2420,42.8014,5.9826,13.2990,4.59909,2453.717,38.4859
2023-12-05T00:21:49,2420,42.8014,5.9826,13.2990,4.59917,2453.672,38.4866
2023-12-05T00:24:49,2420,42.8014,5.9826,13.2995,4.59913,2453.695,38.4857
2023-12-05T00:27:49,2420,42.8014,5.9826,13.2997,4.59914,2453.695,38.4856
2023-12-05T00:30:49,2420,42.8014,5.9826,13.2998,4.59915,2453.695,38.4855
2023-12-05T00:33:49,2420,42.8014,5.9826,13.2989,4.59920,2453.672,38.4870
2023-12-05T00:36:49,2420,42.8014,5.9826,13.2993,4.59916,2453.695,38.4862
2023-12-05T00:39:49,2420,42.8014,5.9826,13.2993,4.59915,2453.657,38.4861
2023-12-05T00:42:49,2420,42.8014,5.9826,13.2995,4.59919,2453.695,38.4863
2023-12-05T00:45:49,2420,42.8014,5.9826,13.2986,4.59917,2453.695,38.4869
2023-12-05T00:48:49,2420,42.8014,5.9826,13.2994,4.59913,2453.657,38.4858
2023-12-05T00:51:49,2420,42.8014,5.9826,13.2987,4.59917,2453.672,38.4869
2023-12-05T00:54:49,2420,42.8014,5.9826,13.2989,4.59915,2453.695,38.4865
2023-12-05T00:57:49,2420,42.8014,5.9826,13.2983,4.59920,2453.695,38.4876
2023-12-05T01:00:50,2420,42.8014,5.9826,13.2985,4.59916,2453.695,38.4870
2023-12-05T01:03:49,2420,42.8014,5.9826,13.2987,4.59913,2453.695,38.4865
2023-12-05T01:06:49,2420,42.8014,5.9826,13.2988,4.59913,2453.649,38.4865
2023-12-05T01:09:49,2420,42.8014,5.9826,13.2991,4.59915,2453.672,38.4863
2023-12-05T01:12:49,2420,42.8014,5.9826,13.2995,4.59914,2453.672,38.4858
2023-12-05T01:15:49,2420,42.8014,5.9826,13.2985,4.59915,2453.672,38.4870
2023-12-05T01:18:49,2420,42.8014,5.9826,13.2990,4.59913,2453.672,38.4862
2023-12-05T01:21:49,2420,42.8014,5.9826,13.2996,4.59915,2453.695,38.4858
2023-12-05T01:24:49,2420,42.8014,5.9826,13.2990,4.59931,2453.687,38.4880
2023-12-05T01:27:49,2420,42.8014,5.9826,13.3000,4.59918,2453.672,38.4857
2023-12-05T01:30:49,2420,42.8014,5.9826,13.2990,4.59917,2453.672,38.4866
2023-12-05T01:33:49,2420,42.8014,5.9826,13.2989,4.59918,2453.672,38.4868
2023-12-05T01:36:49,2420,42.8014,5.9826,13.2986,4.59915,2453.672,38.4867
2023-12-05T01:39:49,2420,42.8014,5.9826,13.2988,4.59915,2453.695,38.4866
2023-12-05T01:42:49,2420,42.8014,5.9826,13.2989,4.59920,2453.709,38.4869
2023-12-05T01:45:49,2420,42.8014,5.9826,13.2985,4.59916,2453.695,38.4870
2023-12-05T01:48:49,2420,42.8014,5.9826,13.2987,4.59926,2453.687,38.4878
2023-12-05T01:51:49,2420,42.8014,5.9826,13.2987,4.59915,2453.695,38.4867
2023-12-05T01:54:49,2420,42.8014,5.9826,13.2989,4.59919,2453.649,38.4869
2023-12-05T01:57:49,2420,42.8014,5.9826,13.2988,4.59916,2453.649,38.4868
2023-12-05T02:00:50,2420,42.8014,5.9826,13.2985,4.59918,2453.672,38.4873
2023-12-05T02:03:49,2420,42.8014,5.9826,13.2988,4.59918,2453.695,38.4869
2023-12-05T02:06:49,2420,42.8014,5.9826,13.2990,4.59915,2453.657,38.4864
2023-12-05T02:09:49,2420,42.8014,5.9826,13.2986,4.59915,2453.672,38.4868
2023-12-05T02:12:49,2420,42.8014,5.9826,13.2986,4.59915,2453.672,38.4869
2023-12-05T02:15:49,2420,42.8014,5.9826,13.2986,4.59920,2453.709,38.4873
2023-12-05T02:18:49,2420,42.8014,5.9826,13.2988,4.59909,2453.695,38.4861
2023-12-05T02:21:49,2420,42.8014,5.9826,13.2985,4.59911,2453.649,38.4866
2023-12-05T02:24:49,2420,42.8014,5.9826,13.2987,4.59910,2453.672,38.4862
2023-12-05T02:27:49,2420,42.8014,5.9826,13.2985,4.59915,2453.672,38.4869
2023-12-05T02:30:50,2420,42.8014,5.9826,13.2986,4.59914,2453.672,38.4867
2023-12-05T02:33:49,2420,42.8014,5.9826,13.2987,4.59911,2453.672,38.4863
2023-12-05T02:36:49,2420,42.8014,5.9826,13.2987,4.59910,2453.672,38.4862
2023-12-05T02:39:49,2420,42.8014,5.9826,13.2981,4.59909,2453.672,38.4867
2023-12-05T02:42:49,2420,42.8014,5.9826,13.2985,4.59909,2453.695,38.4864
2023-12-05T02:45:49,2420,42.8014,5.9826,13.2985,4.59911,2453.695,38.4866
2023-12-05T02:48:49,2420,42.8014,5.9826,13.2987,4.59910,2453.672,38.4862
2023-12-05T02:51:49,2420,42.8014,5.9826,13.2985,4.59909,2453.649,38.4864
2023-12-05T02:54:49,2420,42.8014,5.9826,13.2986,4.59908,2453.672,38.4861
2023-12-05T02:57:49,2420,42.8014,5.9826,13.2986,4.59908,2453.672,38.4862
2023-12-05T03:00:49,2420,42.8014,5.9826,13.2986,4.59909,2453.649,38.4863
2023-12-05T03:03:49,2420,42.8014,5.9826,13.2986,4.59910,2453.672,38.4864
2023-12-05T03:06:49,2420,42.8014,5.9826,13.2986,4.59908,2453.695,38.4862
2023-12-05T03:09:49,2420,42.8014,5.9826,13.2985,4.59909,2453.657,38.4864
2023-12-05T03:12:49,2420,42.8014,5.9826,13.2986,4.59908,2453.649,38.4862
2023-12-05T03:15:49,2420,42.8014,5.9826,13.2988,4.59906,2453.672,38.4858
2023-12-05T03:18:49,2420,42.8014,5.9826,13.2988,4.59908,2453.649,38.4860
2023-12-05T03:21:49,2420,42.8014,5.9826,13.2986,4.59908,2453.649,38.4861
2023-12-05T03:24:49,2420,42.8014,5.9826,13.2985,4.59909,2453.649,38.4864
2023-12-05T03:27:49,2420,42.8014,5.9826,13.2988,4.59908,2453.649,38.4860
2023-12-05T03:30:49,2420,42.8014,5.9826,13.2988,4.59907,2453.635,38.4859
2023-12-05T03:33:49,2420,42.8014,5.9826,13.2986,4.59908,2453.649,38.4861
2023-12-05T03:36:49,2420,42.8014,5.9826,13.2985,4.59907,2453.627,38.4862
2023-12-05T03:39:49,2420,42.8014,5.9826,13.2985,4.59907,2453.649,38.4862
2023-12-05T03:42:49,2420,42.8014,5.9826,13.2990,4.59908,2453.664,38.4857
2023-12-05T03:45:49,2420,42.8014,5.9826,13.2985,4.59907,2453.672,38.4862
2023-12-05T03:48:49,2420,42.8014,5.9826,13.2986,4.59907,2453.657,38.4860
2023-12-05T03:51:49,2420,42.8014,5.9826,13.2982,4.59908,2453.635,38.4866
2023-12-05T03:54:50,2420,42.8014,5.9826,13.2985,4.59909,2453.649,38.4864
2023-12-05T03:57:49,2420,42.8014,5.9826,13.2983,4.59911,2453.635,38.4868
2023-12-05T04:00:49,2420,42.8014,5.9826,13.2985,4.59909,2453.664,38.4864
2023-12-05T04:03:49,2420,42.8014,5.9826,13.2986,4.59906,2453.649,38.4860
2023-12-05T04:06:49,2420,42.8014,5.9826,13.2987,4.59908,2453.635,38.4861
2023-12-05T04:09:49,2420,42.8014,5.9826,13.2988,4.59909,2453.649,38.4861
2023-12-05T04:12:49,2420,42.8014,5.9826,13.2987,4.59906,2453.649,38.4858
2023-12-05T04:15:49,2420,42.8014,5.9826,13.2986,4.59908,2453.680,38.4862
2023-12-05T04:18:49,2420,42.8014,5.9826,13.2983,4.59908,2453.664,38.4864
2023-12-05T04:21:49,2420,42.8014,5.9826,13.2985,4.59907,2453.627,38.4862
2023-12-05T04:24:49,2420,42.8014,5.9826,13.2982,4.59906,2453.649,38.4865
2023-12-05T04:27:49,2420,42.8014,5.9826,13.2986,4.59906,2453.612,38.4860
2023-12-05T04:30:50,2420,42.8014,5.9826,13.2986,4.59906,2453.649,38.4860
2023-12-05T04:33:49,2420,42.8014,5.9826,13.2988,4.59906,2453.649,38.4858
2023-12-05T04:36:49,2420,42.8014,5.9826,13.2983,4.59906,2453.627,38.4862
2023-12-05T04:39:49,2420,42.8014,5.9826,13.2986,4.59908,2453.649,38.4862
2023-12-05T04:42:49,2420,42.8014,5.9826,13.2982,4.59909,2453.641,38.4866
2023-12-05T04:45:49,2420,42.8014,5.9826,13.2986,4.59908,2453.649,38.4861
2023-12-05T04:48:49,2420,42.8014,5.9826,13.2985,4.59906,2453.627,38.4861
2023-12-05T04:51:49,2420,42.8014,5.9826,13.2985,4.59908,2453.649,38.4863
2023-12-05T04:54:49,2420,42.8014,5.9826,13.2984,4.59907,2453.627,38.4863
2023-12-05T04:57:49,2420,42.8014,5.9826,13.2985,4.59908,2453.627,38.4863
2023-12-05T05:00:49,2420,42.8014,5.9826,13.2986,4.59909,2453.672,38.4862
2023-12-05T05:03:49,2420,42.8014,5.9826,13.2985,4.59907,2453.627,38.4862
2023-12-05T05:06:49,2420,42.8014,5.9826,13.2985,4.59908,2453.649,38.4863
2023-12-05T05:09:49,2420,42.8014,5.9826,13.2988,4.59908,2453.641,38.4859
2023-12-05T05:12:49,2420,42.8014,5.9826,13.2986,4.59906,2453.649,38.4860
2023-12-05T05:15:49,2420,42.8014,5.9826,13.2985,4.59906,2453.627,38.4861
2023-12-05T05:18:49,2420,42.8014,5.9826,13.2985,4.59907,2453.627,38.4862
2023-12-05T05:21:49,2420,42.8014,5.9826,13.2988,4.59908,2453.627,38.4860
2023-12-05T05:24:49,2420,42.8014,5.9826,13.2981,4.59906,2453.672,38.4865
2023-12-05T05:27:49,2420,42.8014,5.9826,13.2986,4.59908,2453.604,38.4861
2023-12-05T05:30:49,2420,42.8014,5.9826,13.2984,4.59908,2453.612,38.4864
2023-12-05T05:33:49,2420,42.8014,5.9826,13.2984,4.59907,2453.649,38.4863
2023-12-05T05:36:49,2420,42.8014,5.9826,13.2987,4.59908,2453.627,38.4861
2023-12-05T05:39:49,2420,42.8014,5.9826,13.2984,4.59905,2453.649,38.4861
2023-12-05T05:42:49,2420,42.8014,5.9826,13.2985,4.59903,2453.627,38.4858
2023-12-05T05:45:49,2420,42.8014,5.9826,13.2981,4.59906,2453.627,38.4865
2023-12-05T05:48:49,2420,42.8014,5.9826,13.2979,4.59904,2453.627,38.4865
2023-12-05T05:51:49,2420,42.8014,5.9826,13.2982,4.59905,2453.627,38.4863
2023-12-05T05:54:49,2420,42.8014,5.9826,13.2979,4.59903,2453.649,38.4865
2023-12-05T05:57:49,2420,42.8014,5.9826,13.2981,4.59903,2453.649,38.4862
2023-12-05T06:00:49,2420,42.8014,5.9826,13.2979,4.59901,2453.627,38.4862
2023-12-05T06:03:49,2420,42.8014,5.9826,13.2977,4.59900,2453.627,38.4864
2023-12-05T06:06:49,2420,42.8014,5.9826,13.2981,4.59901,2453.604,38.4860
2023-12-05T06:09:49,2420,42.8014,5.9826,13.2982,4.59900,2453.641,38.4859
2023-12-05T06:12:49,2420,42.8014,5.9826,13.2982,4.59900,2453.612,38.4859
2023-12-05T06:15:49,2420,42.8014,5.9826,13.2984,4.59899,2453.649,38.4855
2023-12-05T06:18:49,2420,42.8014,5.9826,13.2979,4.59900,2453.612,38.4861
2023-12-05T06:21:49,2420,42.8014,5.9826,13.2979,4.59900,2453.649,38.4861
2023-12-05T06:24:49,2420,42.8014,5.9826,13.2979,4.59899,2453.649,38.4860
2023-12-05T06:27:49,2420,42.8014,5.9826,13.2979,4.59897,2453.627,38.4858
2023-12-05T06:30:49,2420,42.8014,5.9826,13.2978,4.59899,2453.672,38.4861
2023-12-05T06:33:49,2420,42.8014,5.9826,13.2979,4.59898,2453.627,38.4860
2023-12-05T06:36:49,2420,42.8014,5.9826,13.2980,4.59900,2453.649,38.4860
2023-12-05T06:39:49,2420,42.8014,5.9826,13.2978,4.59899,2453.604,38.4861
2023-12-05T06:42:49,2420,42.8014,5.9826,13.2973,4.59900,2453.612,38.4867
2023-12-05T06:45:49,2420,42.8014,5.9826,13.2979,4.59898,2453.627,38.4860
2023-12-05T06:48:49,2420,42.8014,5.9826,13.2979,4.59900,2453.627,38.4862
2023-12-05T06:51:49,2420,42.8014,5.9826,13.2981,4.59899,2453.604,38.4858
2023-12-05T06:54:49,2420,42.8014,5.9826,13.2978,4.59897,2453.627,38.4859
2023-12-05T06:57:49,2420,42.8014,5.9826,13.2975,4.59898,2453.604,38.4864
2023-12-05T07:00:49,2420,42.8014,5.9826,13.2975,4.59899,2453.627,38.4865
2023-12-05T07:03:49,2420,42.8014,5.9826,13.2979,4.59898,2453.649,38.4860
2023-12-05T07:06:49,2420,42.8014,5.9826,13.2978,4.59900,2453.627,38.4862
2023-12-05T07:09:49,2420,42.8014,5.9826,13.2980,4.59900,2453.604,38.4860
2023-12-05T07:12:49,2420,42.8014,5.9826,13.2977,4.59898,2453.627,38.4862
2023-12-05T07:15:49,2420,42.8014,5.9826,13.2977,4.59897,2453.649,38.4861
2023-12-05T07:18:49,2420,42.8014,5.9826,13.2981,4.59898,2453.604,38.4858
2023-12-05T07:21:49,2420,42.8014,5.9826,13.2975,4.59899,2453.649,38.4865
2023-12-05T07:24:49,2420,42.8014,5.9826,13.2980,4.59900,2453.627,38.4861
2023-12-05T07:27:49,2420,42.8014,5.9826,13.2978,4.59899,2453.604,38.4861
2023-12-05T07:30:49,2420,42.8014,5.9826,13.2978,4.59898,2453.627,38.4861
2023-12-05T07:33:49,2420,42.8014,5.9826,13.2979,4.59897,2453.672,38.4858
2023-12-05T07:36:49,2420,42.8014,5.9826,13.2978,4.59899,2453.612,38.4861
2023-12-05T07:39:49,2420,42.8014,5.9826,13.2978,4.59897,2453.649,38.4859
2023-12-05T07:42:49,2420,42.8014,5.9826,13.2979,4.59897,2453.672,38.4858
2023-12-05T07:45:49,2420,42.8014,5.9826,13.2979,4.59897,2453.657,38.4859
2023-12-05T07:48:49,2420,42.8014,5.9826,13.2975,4.59900,2453.649,38.4866
2023-12-05T07:51:49,2420,42.8014,5.9826,13.2979,4.59897,2453.635,38.4859
2023-12-05T07:54:49,2420,42.8014,5.9826,13.2980,4.59899,2453.627,38.4859
2023-12-05T07:57:49,2420,42.8014,5.9826,13.2979,4.59899,2453.649,38.4860
2023-12-05T08:00:49,2420,42.8014,5.9826,13.2981,4.59897,2453.649,38.4856
2023-12-05T08:03:49,2420,42.8014,5.9826,13.2978,4.59897,2453.627,38.4860
2023-12-05T08:06:49,2420,42.8014,5.9826,13.2978,4.59899,2453.649,38.4862
2023-12-05T08:09:49,2420,42.8014,5.9826,13.2978,4.59901,2453.664,38.4864
2023-12-05T08:12:49,2420,42.8014,5.9826,13.2978,4.59899,2453.627,38.4861
2023-12-05T08:15:49,2420,42.8014,5.9826,13.2978,4.59900,2453.649,38.4863
2023-12-05T08:18:49,2420,42.8014,5.9826,13.2978,4.59900,2453.672,38.4862
2023-12-05T08:21:49,2420,42.8014,5.9826,13.2980,4.59900,2453.649,38.4860
2023-12-05T08:24:49,2420,42.8014,5.9826,13.2979,4.59900,2453.649,38.4861
2023-12-05T08:27:49,2420,42.8014,5.9826,13.2979,4.59900,2453.672,38.4862
2023-12-05T08:30:49,2420,42.8014,5.9826,13.2977,4.59900,2453.672,38.4864
2023-12-05T08:33:49,2420,42.8014,5.9826,13.2979,4.59903,2453.649,38.4864
2023-12-05T08:36:49,2420,42.8014,5.9826,13.2978,4.59899,2453.672,38.4861
2023-12-05T08:39:49,2420,42.8014,5.9826,13.2979,4.59902,2453.649,38.4862
2023-12-05T08:42:49,2420,42.8014,5.9826,13.2978,4.59900,2453.695,38.4863
2023-12-05T08:45:49,2420,42.8014,5.9826,13.2979,4.59900,2453.649,38.4861
2023-12-05T08:48:49,2420,42.8014,5.9826,13.2979,4.59901,2453.672,38.4862
2023-12-05T08:51:49,2420,42.8014,5.9826,13.2978,4.59900,2453.649,38.4862
2023-12-05T08:54:49,2420,42.8014,5.9826,13.2979,4.59900,2453.635,38.4861
2023-12-05T08:57:49,2420,42.8014,5.9826,13.2979,4.59900,2453.649,38.4862
2023-12-05T09:00:50,2420,42.8014,5.9826,13.2979,4.59901,2453.672,38.4862
2023-12-05T09:03:49,2420,42.8014,5.9826,13.2979,4.59901,2453.672,38.4862
2023-12-05T09:06:49,2420,42.8014,5.9826,13.2981,4.59901,2453.649,38.4860
2023-12-05T09:09:49,2420,42.8014,5.9826,13.2978,4.59902,2453.649,38.4864
2023-12-05T09:12:49,2420,42.8014,5.9826,13.2983,4.59901,2453.672,38.4858
2023-12-05T09:15:49,2420,42.8014,5.9826,13.2987,4.59901,2453.672,38.4854
2023-12-05T09:18:50,2420,42.8014,5.9826,13.2982,4.59900,2453.672,38.4859
2023-12-05T09:21:49,2420,42.8014,5.9826,13.2980,4.59900,2453.695,38.4860
2023-12-05T09:24:49,2420,42.8014,5.9826,13.2981,4.59905,2453.672,38.4864
2023-12-05T09:27:49,2420,42.8014,5.9826,13.2979,4.59900,2453.672,38.4860
2023-12-05T09:30:50,2420,42.8014,5.9826,13.2978,4.59903,2453.672,38.4865
2023-12-05T09:33:49,2420,42.8014,5.9826,13.2981,4.59901,2453.672,38.4860
2023-12-05T09:36:49,2420,42.8014,5.9826,13.2981,4.59901,2453.672,38.4860
2023-12-05T09:39:50,2420,42.8014,5.9826,13.2979,4.59902,2453.717,38.4862
2023-12-05T09:42:49,2420,42.8014,5.9826,13.2983,4.59901,2453.695,38.4858
2023-12-05T09:45:49,2420,42.8014,5.9826,13.2979,4.59900,2453.695,38.4862
2023-12-05T09:48:49,2420,42.8014,5.9826,13.2977,4.59906,2453.702,38.4869
2023-12-05T09:51:49,2420,42.8014,5.9826,13.2985,4.59904,2453.717,38.4859
2023-12-05T09:54:49,2420,42.8014,5.9826,13.2984,4.59906,2453.695,38.4861
2023-12-05T09:57:49,2420,42.8014,5.9826,13.2983,4.59904,2453.695,38.4861
2023-12-05T10:00:49,2420,42.8014,5.9826,13.2979,4.59905,2453.695,38.4865
2023-12-05T10:03:49,2420,42.8014,5.9826,13.2980,4.59903,2453.695,38.4862
2023-12-05T10:06:49,2420,42.8014,5.9826,13.2976,4.59902,2453.702,38.4866
2023-12-05T10:09:49,2420,42.8014,5.9826,13.2979,4.59899,2453.695,38.4860
2023-12-05T10:12:49,2420,42.8014,5.9826,13.2983,4.59903,2453.717,38.4859
2023-12-05T10:15:49,2420,42.8014,5.9826,13.2976,4.59906,2453.717,38.4870
2023-12-05T10:18:49,2420,42.8014,5.9826,13.2977,4.59903,2453.672,38.4866
2023-12-05T10:21:49,2420,42.8014,5.9826,13.2982,4.59900,2453.754,38.4858
2023-12-05T10:24:49,2420,42.8014,5.9826,13.2977,4.59902,2453.732,38.4865
2023-12-05T10:27:49,2420,42.8014,5.9826,13.2981,4.59905,2453.672,38.4864
2023-12-05T10:30:49,2420,42.8014,5.9826,13.2982,4.59906,2453.717,38.4864
2023-12-05T10:33:49,2420,42.8014,5.9826,13.2979,4.59904,2453.695,38.4864
2023-12-05T10:36:49,2420,42.8014,5.9826,13.2976,4.59909,2453.702,38.4873
2023-12-05T10:39:49,2420,42.8014,5.9826,13.2980,4.59902,2453.695,38.4862
2023-12-05T10:42:49,2420,42.8014,5.9826,13.2978,4.59907,2453.717,38.4869
2023-12-05T10:45:49,2420,42.8014,5.9826,13.2981,4.59905,2453.695,38.4864
2023-12-05T10:48:49,2420,42.8014,5.9826,13.2978,4.59901,2453.732,38.4863
2023-12-05T10:51:49,2420,42.8014,5.9826,13.2980,4.59907,2453.702,38.4867
2023-12-05T10:54:49,2420,42.8014,5.9826,13.2982,4.59910,2453.709,38.4868
2023-12-05T10:57:49,2420,42.8014,5.9826,13.2979,4.59909,2453.695,38.4869
2023-12-05T11:00:50,2420,42.8014,5.9826,13.2985,4.59904,2453.717,38.4859
2023-12-05T11:03:49,2420,42.8014,5.9826,13.2982,4.59912,2453.754,38.4869
2023-12-05T11:06:49,2420,42.8014,5.9826,13.2979,4.59910,2453.717,38.4870
2023-12-05T11:09:49,2420,42.8014,5.9826,13.2983,4.59904,2453.725,38.4861
2023-12-05T11:12:49,2420,42.8014,5.9826,13.2979,4.59911,2453.695,38.4871
2023-12-05T11:15:49,2420,42.8014,5.9826,13.2983,4.59911,2453.740,38.4868
2023-12-05T11:18:49,2420,42.8014,5.9826,13.2983,4.59911,2453.680,38.4867
2023-12-05T11:21:49,2420,42.8014,5.9826,13.2978,4.59911,2453.717,38.4873
2023-12-05T11:24:49,2420,42.8014,5.9826,13.2982,4.59903,2453.740,38.4861
2023-12-05T11:27:49,2420,42.8014,5.9826,13.2976,4.59906,2453.740,38.4870
2023-12-05T11:30:49,2420,42.8014,5.9826,13.2983,4.59911,2453.695,38.4867
2023-12-05T11:33:49,2420,42.8014,5.9826,13.2983,4.59906,2453.717,38.4863
2023-12-05T11:36:49,2420,42.8014,5.9826,13.2985,4.59904,2453.702,38.4859
2023-12-05T11:39:49,2420,42.8014,5.9826,13.2981,4.59904,2453.717,38.4863
2023-12-05T11:42:49,2420,42.8014,5.9826,13.2980,4.59911,2453.725,38.4870
2023-12-05T11:45:49,2420,42.8014,5.9826,13.2985,4.59908,2453.732,38.4863
2023-12-05T11:48:49,2420,42.8014,5.9826,13.2984,4.48510,2453.717,37.4126
2023-12-05T11:51:49,2420,42.8014,5.9826,13.2979,4.43396,2453.740,36.9329
2023-12-05T11:54:49,2420,42.8014,5.9826,13.2981,4.39729,2453.717,36.5891
2023-12-05T11:57:49,2420,42.8014,5.9826,13.2982,4.39520,2453.740,36.5695
2023-12-05T12:00:49,2420,42.8014,5.9826,13.2982,4.39542,2453.702,36.5715
2023-12-05T12:03:50,2420,42.8014,5.9826,13.2979,4.39599,2453.740,36.5771
2023-12-05T12:06:49,2420,42.8014,5.9826,13.2983,4.39218,2453.717,36.5411
2023-12-05T12:09:49,2420,42.8014,5.9826,13.2981,4.39456,2453.732,36.5636
2023-12-05T12:12:49,2420,42.8014,5.9826,13.2985,4.59907,2453.740,38.4862
2023-12-05T12:15:49,2420,42.8014,5.9826,13.2985,4.59906,2453.740,38.4861
2023-12-05T12:18:49,2420,42.8014,5.9826,13.2987,4.59906,2453.740,38.4859
2023-12-05T12:21:49,2420,42.8014,5.9826,13.2986,4.59908,2453.717,38.4861
2023-12-05T12:24:49,2420,42.8014,5.9826,13.2984,4.59905,2453.717,38.4860
2023-12-05T12:27:49,2420,42.8014,5.9826,13.2985,4.59907,2453.725,38.4862
2023-12-05T12:30:49,2420,42.8014,5.9826,13.2985,4.59922,2453.717,38.4876
2023-12-05T12:33:49,2420,42.8014,5.9826,13.2987,4.59913,2453.725,38.4865
2023-12-05T12:36:49,2420,42.8014,5.9826,13.2988,4.59923,2453.717,38.4874
2023-12-05T12:39:49,2420,42.8014,5.9826,13.2992,4.59951,2453.717,38.4896
2023-12-05T12:42:49,2420,42.8014,5.9826,13.3029,4.59929,2453.740,38.4839
2023-12-05T12:45:49,2420,42.8014,5.9826,13.3050,4.59952,2453.740,38.4840
2023-12-05T12:48:49,2420,42.8014,5.9826,13.3076,4.60014,2453.695,38.4873
2023-12-05T12:51:49,2420,42.8014,5.9826,13.3248,4.59963,2453.695,38.4653
2023-12-05T12:54:49,2420,42.8014,5.9826,13.3023,4.59941,2453.740,38.4856
2023-12-05T12:57:49,2420,42.8014,5.9826,13.3056,4.59965,2453.717,38.4846
2023-12-05T13:00:49,2420,42.8014,5.9826,13.3049,4.59951,2453.717,38.4840
2023-12-05T13:03:49,2420,42.8014,5.9826,13.3210,4.59960,2453.717,38.4689
2023-12-05T13:06:49,2420,42.8014,5.9826,13.3178,4.59989,2453.740,38.4747
2023-12-05T13:09:49,2420,42.8014,5.9826,13.3076,4.60048,2453.732,38.4904
2023-12-05T13:12:49,2420,42.8014,5.9826,13.3148,4.59961,2453.740,38.4751
2023-12-05T13:15:49,2420,42.8014,5.9826,13.3041,4.59930,2453.717,38.4828
2023-12-05T13:18:49,2420,42.8014,5.9826,13.3554,4.59951,2453.762,38.4338
2023-12-05T13:21:49,2420,42.8014,5.9826,13.3092,4.59991,2453.740,38.4835
2023-12-05T13:24:49,2420,42.8014,5.9826,13.3127,4.59992,2453.740,38.4801
2023-12-05T13:27:49,2420,42.8014,5.9826,13.3073,4.59941,2453.717,38.4806
2023-12-05T13:30:49,2420,42.8014,5.9826,13.3033,4.59976,2453.732,38.4879
2023-12-05T13:33:49,2420,42.8014,5.9826,13.3074,4.59928,2453.740,38.4793
2023-12-05T13:36:49,2420,42.8014,5.9826,13.3002,4.60067,2453.717,38.4995
2023-12-05T13:39:49,2420,42.8014,5.9826,13.3088,4.59991,2453.695,38.4839
2023-12-05T13:42:49,2420,42.8014,5.9826,13.3144,4.59944,2453.717,38.4738
2023-12-05T13:45:49,2420,42.8014,5.9826,13.3142,4.59968,2453.717,38.4763
2023-12-05T13:48:49,2420,42.8014,5.9826,13.3074,4.59943,2453.717,38.4808
2023-12-05T13:51:49,2420,42.8014,5.9826,13.3042,4.59951,2453.717,38.4846
2023-12-05T13:54:49,2420,42.8014,5.9826,13.3103,4.59928,2453.740,38.4764
2023-12-05T13:57:49,2420,42.8014,5.9826,13.3046,4.59934,2453.709,38.4827
2023-12-05T14:00:49,2420,42.8014,5.9826,13.3134,4.59964,2453.709,38.4768
2023-12-05T14:03:49,2420,42.8014,5.9826,13.3132,4.59964,2453.717,38.4769
2023-12-05T14:06:49,2420,42.8014,5.9826,13.3081,4.59962,2453.732,38.4818
2023-12-05T14:09:49,2420,42.8014,5.9826,13.3092,4.59943,2453.709,38.4789
2023-12-05T14:12:49,2420,42.8014,5.9826,13.3021,4.59997,2453.717,38.4911
2023-12-05T14:15:49,2420,42.8014,5.9826,13.3016,4.59967,2453.695,38.4888
2023-12-05T14:18:49,2420,42.8014,5.9826,13.3021,4.60042,2453.709,38.4954
2023-12-05T14:21:49,2420,42.8014,5.9826,13.3021,4.59918,2453.695,38.4836
2023-12-05T14:24:49,2420,42.8014,5.9826,13.3030,4.59966,2453.717,38.4872
2023-12-05T14:27:49,2420,42.8014,5.9826,13.3069,4.59939,2453.740,38.4808
2023-12-05T14:30:49,2420,42.8014,5.9826,13.3182,4.59951,2453.702,38.4708
2023-12-05T14:33:49,2420,42.8014,5.9826,13.3095,4.59931,2453.740,38.4774
2023-12-05T14:36:49,2420,42.8014,5.9826,13.3122,4.59964,2453.717,38.4780
2023-12-05T14:39:49,2420,42.8014,5.9826,13.3121,4.59974,2453.695,38.4789
2023-12-05T14:42:49,2420,42.8014,5.9826,13.3187,4.60055,2453.695,38.4800
2023-12-05T14:45:49,2420,42.8014,5.9826,13.3026,4.60114,2453.717,38.5016
2023-12-05T14:48:49,2420,42.8014,5.9826,13.3022,4.59968,2453.740,38.4883
2023-12-05T14:51:49,2420,42.8014,5.9826,13.3015,4.60033,2453.695,38.4951
2023-12-05T14:54:49,2420,42.8014,5.9826,13.3019,4.59957,2453.740,38.4875
2023-12-05T14:57:49,2420,42.8014,5.9826,13.3016,4.59937,2453.709,38.4859
2023-12-05T15:00:49,2420,42.8014,5.9826,13.2994,4.59974,2453.732,38.4915
2023-12-05T15:03:49,2420,42.8014,5.9826,13.2997,4.59927,2453.740,38.4869
2023-12-05T15:06:49,2420,42.8014,5.9826,13.2993,4.59927,2453.717,38.4873
2023-12-05T15:09:49,2420,42.8014,5.9826,13.2991,4.59937,2453.695,38.4884
2023-12-05T15:12:49,2420,42.8014,5.9826,13.2985,4.59930,2453.732,38.4883
2023-12-05T15:15:49,2420,42.8014,5.9826,13.2988,4.59931,2453.717,38.4881
2023-12-05T15:18:49,2420,42.8014,5.9826,13.2987,4.59917,2453.695,38.4869
2023-12-05T15:21:49,2420,42.8014,5.9826,13.2982,4.59920,2453.680,38.4877
2023-12-05T15:24:49,2420,42.8014,5.9826,13.2982,4.59908,2453.695,38.4866
2023-12-05T15:27:49,2420,42.8014,5.9826,13.2986,4.59905,2453.740,38.4858
2023-12-05T15:30:49,2420,42.8014,5.9826,13.2985,4.59905,2453.695,38.4860
2023-12-05T15:33:49,2420,42.8014,5.9826,13.2985,4.59903,2453.740,38.4858
2023-12-05T15:36:49,2420,42.8014,5.9826,13.2986,4.59905,2453.672,38.4858
2023-12-05T15:39:49,2420,42.8014,5.9826,13.2985,4.59905,2453.709,38.4860
2023-12-05T15:42:49,2420,42.8014,5.9826,13.2991,4.59904,2453.732,38.4852
2023-12-05T15:45:49,2420,42.8014,5.9826,13.2986,4.59905,2453.672,38.4859
2023-12-05T15:48:49,2420,42.8014,5.9826,13.2991,4.59903,2453.695,38.4852
2023-12-05T15:51:49,2420,42.8014,5.9826,13.2987,4.59903,2453.680,38.4856
2023-12-05T15:54:49,2420,42.8014,5.9826,13.2986,4.59902,2453.672,38.4855
2023-12-05T15:57:49,2420,42.8014,5.9826,13.2986,4.59902,2453.695,38.4855
2023-12-05T16:00:49,2420,42.8014,5.9826,13.2982,4.59903,2453.695,38.4861
2023-12-05T16:03:49,2420,42.8014,5.9826,13.2984,4.59905,2453.672,38.4861